Regional Weather Roundup
Issued by NWS

Home | Current Version | Previous Version | Text Only | Print | Product List | Glossary Off
Versions: 1 2 3 4 5 6 7 8 9 10 11 12 13 14 15 16 17 18 19 20 21 22 23 24 25 26 27 28 29 30 31 32 33 34 35 36 37 38 39 40 41 42 43 44 45 46 47 48 49 50

000
ASUS43 KIND 220259
RWRIN

WEATHER ROUNDUP FOR INDIANA
NATIONAL WEATHER SERVICE INDIANAPOLIS IN
1100 PM EDT THU SEP 21 2017

NOTE: "FAIR" INDICATES FEW OR NO CLOUDS BELOW 12,000 FEET WITH NO
SIGNIFICANT WEATHER AND/OR OBSTRUCTIONS TO VISIBILITY.

* - STATION DOES NOT REPORT WEATHER SUCH AS PRECIPITATION OR FOG.

+ - STATION NOT QUALITY CONTROLLED BY THE NATIONAL WEATHER SERVICE.
    USE DATA WITH CAUTION...ESPECIALLY DEWPOINT AND RELATIVE
    HUMIDITY OBSERVATIONS.

INZ001>003-010>013-019-020-220400-
NORTHWEST INDIANA

CITY           SKY/WX    TMP DP  RH WIND       PRES   REMARKS
GARY /AIRPORT/ PTCLDY    73  70  88 VRB5      30.03R
KNOX *+        CLEAR     70  68  94 SE3       30.04R
MICHIGAN CITY+ CLEAR     72  72 100 CALM      30.04S
MONTICELLO +   CLEAR     73  71  95 CALM      30.04R
RENSSELAER +   CLEAR     73  64  73 CALM      30.04R

$$

LMZ046-743>745-220400-
SOUTHERN LAKE MICHIGAN

STATION/POSITION TIME  TEMP    WIND        PRES    WAVE
                       AIR SEA DIR/SP/G            HT
                 (UTC) (F)     (DEG/KT/KT) (MB)    (FT)
BURNS HARBOR     0240   82     170/  7/ 12 1016.9S
MICHIGAN CITY    0230   82     150/  8/ 10   N/A
5NW MICH CITY    0250   74 71  180/  4/  4   N/A     0

$$

INZ004-005-014>016-021>024-220400-
NORTH CENTRAL INDIANA

CITY           SKY/WX    TMP DP  RH WIND       PRES   REMARKS
GOSHEN         CLEAR     73  68  84 CALM      30.06R
SOUTH BEND     CLEAR     75  71  87 CALM      30.06R
WARSAW +       CLEAR     70  70 100 CALM      30.06S

$$

INZ006>009-017-018-025>027-220400-
NORTHEAST INDIANA

CITY           SKY/WX    TMP DP  RH WIND       PRES   REMARKS
AUBURN +       CLEAR     72  70  94 CALM      30.08S
FORT WAYNE     PTCLDY    73  69  87 CALM      30.08R
KENDALLVILLE + CLEAR     72  70  96 CALM      30.08S

$$

INZ028-029-035-036-043>045-051>053-220400-
WEST CENTRAL INDIANA

CITY           SKY/WX    TMP DP  RH WIND       PRES   REMARKS
GREENCASTLE +  CLEAR     72  68  88 CALM      30.07R
LAFAYETTE      CLEAR     72  70  93 CALM      30.03S
TERRE HAUTE    CLEAR     72  67  84 CALM      30.04S

$$

INZ030>032-037>040-046>048-054>057-064-065-220400-
CENTRAL INDIANA

CITY           SKY/WX    TMP DP  RH WIND       PRES   REMARKS
GREENWOOD *+   CLEAR     76  73  91 CALM      30.07S
INDIANAPOLIS   PTCLDY    80  67  64 CALM      30.06S
-EAGLE CREEK   CLEAR     75  70  84 CALM      30.05S
KOKOMO +       CLEAR     72  69  90 SE5       30.07R
MT COMFORT *+  CLEAR     70  68  94 CALM      30.07S
SHELBYVILLE    CLEAR     72  67  84 E5        30.06R

$$

INZ033-034-041-042-049-050-058-059-220400-
EAST CENTRAL INDIANA

CITY           SKY/WX    TMP DP  RH WIND       PRES   REMARKS
MUNCIE         CLEAR     74  69  85 E3        30.07S
RICHMOND +     CLEAR     70  68  94 CALM      30.10S

$$

INZ060-061-067>069-081>083-085>088-220400-
SOUTHWEST INDIANA

CITY           SKY/WX    TMP DP  RH WIND       PRES   REMARKS
EVANSVILLE     CLEAR     76  70  82 CALM      30.04R
HUNTINGBURG +  CLEAR     74  71  91 CALM      30.05R

$$

INZ062-063-066-070>080-084-089>092-220400-
SOUTH CENTRAL AND SOUTHEAST INDIANA

CITY           SKY/WX    TMP DP  RH WIND       PRES   REMARKS
BLOOMINGTON    CLEAR     71  67  87 CALM      30.06S
MADISON *+     CLEAR     70  68  94 CALM      30.09S
SEYMOUR +      CLEAR     72  70  94 CALM      30.06R

$$




USA.gov is the U.S. government's official web portal to all federal, state and local government web resources and services.